Lufkin, TX

4:51 AM CDT on May 21, 2018 (GMT -0500)
Angelina County

Weather History for KLFK - August, 2012

Change the Weather History Date:

Sunday, August 26, 2012

  Actual Average Record
Temperature  
Mean Temperature 83 °F 82 °F  
Max Temperature 93 °F 93 °F 104 °F (1999)
Min Temperature 72 °F 71 °F 59 °F (1966)
Degree Days  
Heating Degree Days 0 0  
Month to date heating degree days 0 0  
Since 1 June heating degree days 0 0  
Since 1 July heating degree days 0 0  
Cooling Degree Days 18 17  
Month to date cooling degree days 554 465  
Year to date cooling degree days 2431 1936  
Since 1 June cooling degree days 1656 1467  
Growing Degree Days 32 (Base 50)    
Moisture  
Dew Point 72 °F    
Average Humidity 71    
Maximum Humidity 93    
Minimum Humidity 49    
Precipitation  
Precipitation 0.77 in 0.11 in 1.60 in (2016)
Month to date precipitation 1.98 2.77  
Year to date precipitation 30.18 30.02  
Snow  
Snow 0.00 in - - ()
Month to date snowfall 0.0  
Since 1 June snowfall 0.0  
Since 1 July snowfall 0.0  
Snow Depth 0.00 in    
Sea Level Pressure  
Sea Level Pressure 30.01 in    
Wind  
Wind Speed 4 mph (ESE)    
Max Wind Speed 14 mph    
Max Gust Speed 20 mph    
Visibility 8 miles    
Events Rain    
T = Trace of Precipitation, MM = Missing Value Source: NWS Daily Summary

Daily Weather History Graph

Daily Weather History Graph

Search for Another Location

Airport or City:

Astronomy

Aug. 26, 2012 Rise Set
Actual Time 6:51 AM CDT 7:49 PM CDT
Civil Twilight 6:26 AM CDT 8:13 PM CDT
Nautical Twilight 5:57 AM CDT 8:43 PM CDT
Astronomical Twilight 5:26 AM CDT 9:13 PM CDT
Moon 4:08 PM CDT (8/26) 1:46 AM CDT (8/26)
Length of Visible Light 13h 47m
Length of Day
12h 57m
Waxing Gibbous, 73% of the Moon is Illuminated
Aug 26
Waxing Gibbous
Aug 31
Full
Sep 8
Last Quarter
Sep 15
New
Sep 22
First Quarter

Hourly Weather History & Observations

Time (CDT) Temp. Heat Index Dew Point Humidity Pressure Visibility Wind Dir Wind Speed Gust Speed Precip Events Conditions
12:53 AM 73.9 °F - 70.0 °F 87% 29.96 in 10.0 mi SE 5.8 mph - N/A   Clear
1:53 AM 73.9 °F - 70.0 °F 87% 29.97 in 10.0 mi ESE 3.5 mph - N/A   Clear
3:53 AM 73.0 °F - 70.0 °F 90% 29.96 in 10.0 mi Calm Calm - N/A   Clear
4:53 AM 73.0 °F - 69.1 °F 87% 29.97 in 10.0 mi ESE 3.5 mph - N/A   Clear
5:53 AM 72.0 °F - 69.1 °F 91% 29.99 in 10.0 mi ESE 3.5 mph - N/A   Clear
6:53 AM 73.0 °F - 70.0 °F 90% 30.01 in 10.0 mi East 3.5 mph - N/A   Clear
7:53 AM 75.0 °F - 71.1 °F 87% 30.04 in 10.0 mi ESE 4.6 mph - N/A   Clear
8:53 AM 79.0 °F - 73.0 °F 82% 30.05 in 10.0 mi SE 5.8 mph - N/A   Clear
9:53 AM 84.9 °F 91.4 °F 73.0 °F 67% 30.05 in 10.0 mi SSE 8.1 mph - N/A   Clear
10:53 AM 88.0 °F 94.7 °F 72.0 °F 59% 30.05 in 10.0 mi SSW 8.1 mph - N/A   Partly Cloudy
11:53 AM 88.0 °F 93.8 °F 71.1 °F 57% 30.05 in 10.0 mi SSW 11.5 mph - N/A   Scattered Clouds
12:12 PM 82.4 °F 87.2 °F 71.6 °F 70% 30.06 in 1.5 mi WSW 3.5 mph - 0.08 in Rain Heavy Rain
12:20 PM 80.6 °F 85.4 °F 73.4 °F 79% 30.06 in 0.8 mi NE 8.1 mph - 0.18 in Rain Rain
12:24 PM 80.6 °F 85.4 °F 73.4 °F 79% 30.06 in 2.0 mi NNE 8.1 mph - 0.18 in Rain Light Rain
12:31 PM 80.6 °F 85.4 °F 73.4 °F 79% 30.05 in 6.0 mi NE 10.4 mph - 0.20 in Rain Light Rain
12:53 PM 81.0 °F 85.2 °F 72.0 °F 74% 30.04 in 2.5 mi NNW 9.2 mph - 0.26 in Rain Heavy Rain
1:01 PM 78.8 °F - 73.4 °F 83% 30.05 in 1.5 mi NW 10.4 mph - 0.08 in Rain Heavy Rain
1:27 PM 82.4 °F 86.3 °F 69.8 °F 66% 30.04 in 0.8 mi WNW 3.5 mph - 0.34 in Rain Heavy Rain
1:34 PM 80.6 °F 84.6 °F 71.6 °F 74% 30.04 in 1.8 mi NW 4.6 mph - 0.38 in Rain Heavy Rain
1:53 PM 82.4 °F 87.2 °F 71.6 °F 70% 30.02 in 2.5 mi NNE 5.8 mph - N/A Rain Light Rain
2:00 PM 82.4 °F 88.2 °F 73.4 °F 74% 30.02 in 10.0 mi West 5.8 mph - 0.00 in Rain Light Rain
2:53 PM 84.9 °F 93.3 °F 75.0 °F 72% 29.99 in 10.0 mi NW 4.6 mph - 0.00 in   Mostly Cloudy
3:53 PM 90.0 °F 99.0 °F 73.9 °F 59% 29.97 in 10.0 mi SW 6.9 mph - N/A   Clear
4:53 PM 90.0 °F 96.4 °F 71.1 °F 54% 29.95 in 10.0 mi SSW 5.8 mph - N/A   Scattered Clouds
5:53 PM 91.0 °F 95.6 °F 69.1 °F 48% 29.95 in 10.0 mi Calm Calm - N/A   Scattered Clouds
6:53 PM 89.1 °F 95.0 °F 71.1 °F 55% 29.94 in 10.0 mi East 3.5 mph - N/A   Clear
7:53 PM 86.0 °F 92.2 °F 72.0 °F 63% 29.96 in 10.0 mi Calm Calm - N/A   Partly Cloudy
8:53 PM 82.9 °F 89.4 °F 73.9 °F 74% 29.98 in 10.0 mi Calm Calm - N/A   Clear
9:53 PM 82.0 °F 86.7 °F 72.0 °F 71% 29.99 in 10.0 mi Calm Calm - N/A   Clear
10:53 PM 79.0 °F - 72.0 °F 79% 29.99 in 10.0 mi Calm Calm - N/A   Clear
11:53 PM 78.1 °F - 73.0 °F 84% 30.00 in 10.0 mi Calm Calm - N/A   Clear